GW1546 Weather Reports


Display with metric or nautical units.
time (UTC)temp
F
wind
direction
speed
MPH
gust
MPH
rain 1hr
in
rain 24hr
in
rain mn
in
humidity
%
barometer
mb
20260831000024 76 356 0.0 0.0 0.00 0.00 0.00 97 991.1
20260830234847 76 124 0.0 0.0 0.00 0.00 0.00 97 991.1
20260830234227 77 334 0.0 0.0 0.00 0.00 0.00 96 991.1
20260830233608 77 308 0.0 0.0 0.00 0.00 0.00 95 991.1
20260830232412 78 358 0.0 0.0 0.00 0.00 0.00 94 990.8
20260830231227 79 251 1.0 1.0 0.00 0.00 0.00 92 990.8
20260830230609 79 233 0.0 0.0 0.00 0.00 0.00 91 990.8
20260830230024 80 243 0.0 1.0 0.00 0.00 0.00 90 991.1
20260830224842 81 130 0.0 1.0 0.00 0.00 0.00 89 991.1
20260830224245 81 242 0.0 0.0 0.00 0.00 0.00 88 991.1
20260830223615 82 240 0.0 1.0 0.00 0.00 0.00 87 991.1
20260830222427 83 228 0.0 1.0 0.00 0.00 0.00 85 990.8
20260830221823 84 224 0.0 2.0 0.00 0.00 0.00 83 990.8
20260830215444 85 256 0.0 1.0 0.00 0.00 0.00 81 991.1
20260830214824 84 255 1.0 2.0 0.00 0.00 0.00 82 990.8
20260830214234 83 214 1.0 2.0 0.00 0.00 0.00 83 991.1
20260830213610 83 248 1.0 1.0 0.00 0.00 0.00 85 990.8
20260830212447 83 229 0.0 1.0 0.00 0.00 0.00 81 990.8
20260830211844 84 233 1.0 2.0 0.00 0.00 0.00 78 990.8
20260830211221 85 245 0.0 1.0 0.00 0.00 0.00 76 991.1
20260830210613 86 246 0.0 1.0 0.00 0.00 0.00 74 990.8
20260830210045 89 245 2.0 2.0 0.00 0.00 0.00 70 991.1
20260830205430 90 243 2.0 2.0 0.00 0.00 0.00 69 990.8
20260830204832 89 238 1.0 2.0 0.00 0.00 0.00 68 990.8
20260830204247 90 257 2.0 3.0 0.00 0.00 0.00 69 991.1
20260830203641 91 220 1.0 2.0 0.00 0.00 0.00 63 991.1
20260830203047 89 221 1.0 2.0 0.00 0.00 0.00 67 991.1
20260830202427 88 211 1.0 3.0 0.00 0.00 0.00 68 991.1
20260830201822 90 211 3.0 3.0 0.00 0.00 0.00 67 991.1
20260830201226 90 218 1.0 2.0 0.00 0.00 0.00 65 991.1
20260830200650 90 244 2.0 2.0 0.00 0.00 0.00 65 991.1
20260830200025 89 202 1.0 2.0 0.00 0.00 0.00 64 991.1
20260830195416 88 287 1.0 4.0 0.00 0.00 0.00 67 991.5
20260830194833 88 237 2.0 4.0 0.00 0.00 0.00 67 991.5
20260830194212 88 136 3.0 6.0 0.00 0.00 0.00 68 991.5
20260830193608 88 253 2.0 4.0 0.00 0.00 0.00 67 991.8
20260830193024 88 306 3.0 11.0 0.00 0.00 0.00 67 991.8
20260830192415 90 335 4.0 7.0 0.00 0.00 0.00 60 991.8
20260830191819 90 29 0.0 3.0 0.00 0.00 0.00 61 992.2
20260830191225 92 307 2.0 3.0 0.00 0.00 0.00 58 991.8
20260830190633 93 309 1.0 2.0 0.00 0.00 0.00 61 992.2
20260830185433 91 345 0.0 2.0 0.00 0.00 0.00 60 991.8
20260830184830 91 33 3.0 3.0 0.00 0.00 0.00 61 992.2
20260830183639 89 303 3.0 3.0 0.00 0.00 0.00 63 992.2
20260830183021 89 332 2.0 3.0 0.00 0.00 0.00 63 992.5
20260830182440 89 12 3.0 3.0 0.00 0.00 0.00 63 992.8
20260830181841 87 344 0.0 1.0 0.00 0.00 0.00 70 992.8
20260830180617 88 318 1.0 2.0 0.00 0.00 0.00 72 993.2
20260830180049 88 341 1.0 1.0 0.00 0.00 0.00 75 993.2
20260830175448 88 345 1.0 3.0 0.00 0.00 0.00 70 992.8
20260830174847 89 4 2.0 4.0 0.00 0.00 0.00 66 993.2
20260830174207 88 323 0.0 2.0 0.00 0.00 0.00 70 993.2
20260830173011 87 340 1.0 1.0 0.00 0.00 0.00 74 993.2
20260830172446 86 325 0.0 0.0 0.00 0.00 0.00 79 993.5
20260830171844 85 339 0.0 0.0 0.00 0.00 0.00 80 993.5
20260830171240 84 337 0.0 1.0 0.00 0.00 0.00 77 993.9
20260830170609 87 341 1.0 2.0 0.00 0.00 0.00 74 993.5
20260830170047 88 318 1.0 2.0 0.00 0.00 0.00 70 993.5
20260830165423 88 319 1.0 2.0 0.00 0.00 0.00 69 993.9
20260830164843 88 315 1.0 2.0 0.00 0.00 0.00 73 993.9
20260830163613 88 326 0.0 4.0 0.00 0.00 0.00 69 993.9
20260830163045 87 322 1.0 2.0 0.00 0.00 0.00 70 993.9
20260830162414 86 62 2.0 3.0 0.00 0.00 0.00 73 993.9
20260830161808 84 49 2.0 7.0 0.00 0.00 0.00 75 993.9
20260830161233 84 53 0.0 1.0 0.00 0.00 0.00 81 994.2
20260830160638 84 52 1.0 1.0 0.00 0.00 0.00 81 994.2
20260830160022 84 54 0.0 1.0 0.00 0.00 0.00 79 994.2
20260830155408 84 54 1.0 1.0 0.00 0.00 0.00 85 994.2
20260830154835 84 54 0.0 0.0 0.00 0.00 0.00 83 994.2
20260830154209 84 55 1.0 1.0 0.00 0.00 0.00 82 994.5
20260830153644 84 54 0.0 0.0 0.00 0.00 0.00 82 994.5
20260830153010 83 54 0.0 1.0 0.00 0.00 0.00 83 993.9
20260830152442 82 55 0.0 2.0 0.00 0.00 0.00 84 994.2
20260830151815 84 54 0.0 1.0 0.00 0.00 0.00 81 994.2
20260830151230 83 55 0.0 1.0 0.00 0.00 0.00 83 994.2
20260830150633 83 54 0.0 1.0 0.00 0.00 0.00 81 994.2
20260830150025 81 54 1.0 1.0 0.00 0.00 0.00 84 994.2
20260830144842 82 55 0.0 0.0 0.00 0.00 0.00 81 993.9
20260830144239 82 55 0.0 0.0 0.00 0.00 0.00 82 994.2
20260830143032 78 55 0.0 2.0 0.00 0.00 0.00 88 994.2
20260830142435 76 51 2.0 3.0 0.00 0.00 0.00 90 993.9
20260830141828 76 54 0.0 2.0 0.00 0.00 0.00 91 993.9
20260830141231 76 54 0.0 1.0 0.00 0.00 0.00 91 994.2
20260830140619 76 55 0.0 0.0 0.00 0.00 0.00 92 993.9
20260830140008 75 56 0.0 0.0 0.00 0.00 0.00 92 993.9
20260830135409 74 55 0.0 1.0 0.00 0.00 0.00 93 994.2
20260830134841 74 55 1.0 2.0 0.00 0.00 0.00 94 994.2
20260830134218 73 55 0.0 1.0 0.00 0.00 0.00 94 993.9
20260830133641 73 56 0.0 0.0 0.00 0.00 0.00 95 993.9
20260830133040 72 56 0.0 0.0 0.00 0.00 0.00 96 994.2
20260830132432 72 56 0.0 1.0 0.00 0.00 0.00 97 993.9
20260830131841 71 62 0.0 0.0 0.00 0.00 0.00 99 993.9
20260830130626 70 63 0.0 0.0 0.00 0.00 0.00 99 994.2
20260830130032 69 62 0.0 0.0 0.00 0.00 0.00 99 994.2
20260830125410 68 62 0.0 1.0 0.00 0.00 0.00 99 994.2
20260830124824 68 62 0.0 0.0 0.00 0.00 0.00 99 994.2
20260830124210 68 63 1.0 1.0 0.00 0.00 0.00 99 994.2
20260830123648 67 62 0.0 1.0 0.00 0.00 0.00 99 994.2
20260830123041 67 63 0.0 1.0 0.00 0.00 0.00 99 994.2
20260830122422 67 62 0.0 1.0 0.00 0.00 0.00 99 994.5
20260830121823 66 62 0.0 1.0 0.00 0.00 0.00 99 994.2
20260830121238 66 63 0.0 1.0 0.00 0.00 0.00 99 994.2
20260830120635 66 63 1.0 1.0 0.00 0.00 0.00 99 993.9
20260830120020 66 63 0.0 1.0 0.00 0.00 0.00 99 994.2
20260830115413 66 63 0.0 1.0 0.00 0.00 0.00 99 994.2
20260830114237 66 62 0.0 1.0 0.00 0.00 0.00 99 994.2
20260830113612 66 64 1.0 2.0 0.00 0.00 0.00 99 994.2
20260830113010 66 63 1.0 1.0 0.00 0.00 0.00 99 994.2
20260830111844 66 62 0.0 1.0 0.00 0.00 0.00 99 994.2
20260830111248 66 61 0.0 0.0 0.00 0.00 0.00 99 993.9
20260830110643 66 61 0.0 1.0 0.00 0.00 0.00 99 993.9
20260830110042 66 61 0.0 1.0 0.00 0.00 0.00 99 993.9
20260830105421 66 62 0.0 1.0 0.00 0.00 0.00 99 993.9
20260830104833 66 64 1.0 2.0 0.00 0.00 0.00 99 993.9
20260830104212 66 71 2.0 2.0 0.00 0.00 0.00 99 993.9
20260830103627 66 61 1.0 1.0 0.00 0.00 0.00 99 993.5
20260830103035 66 61 0.0 1.0 0.00 0.00 0.00 99 993.9
20260830102420 66 61 0.0 1.0 0.00 0.00 0.00 99 993.9
20260830101824 66 61 0.0 1.0 0.00 0.00 0.00 99 993.9
20260830100638 66 61 0.0 0.0 0.00 0.00 0.00 99 993.5
20260830100015 66 61 0.0 0.0 0.00 0.00 0.00 99 993.9
20260830095434 66 61 0.0 0.0 0.00 0.00 0.00 99 993.5
20260830094813 66 62 1.0 1.0 0.00 0.00 0.00 99 993.9
20260830094230 66 61 0.0 1.0 0.00 0.00 0.00 99 993.5
20260830093020 66 61 0.0 1.0 0.00 0.00 0.00 99 993.5
20260830091814 66 63 1.0 1.0 0.00 0.00 0.00 99 993.2
20260830091211 66 61 0.0 0.0 0.00 0.00 0.00 99 993.5
20260830090627 66 61 0.0 0.0 0.00 0.00 0.00 99 993.5
20260830090049 66 62 0.0 1.0 0.00 0.00 0.00 99 993.5
20260830084825 66 62 0.0 1.0 0.00 0.00 0.00 99 993.2
20260830084222 66 62 0.0 0.0 0.00 0.00 0.00 99 993.2
20260830083636 66 62 1.0 1.0 0.00 0.00 0.00 99 993.5
20260830083020 66 64 1.0 1.0 0.00 0.00 0.00 99 993.5
20260830082442 66 62 0.0 0.0 0.00 0.00 0.00 99 993.5
20260830080613 66 62 0.0 0.0 0.00 0.00 0.00 99 993.5
20260830075416 66 62 0.0 0.0 0.00 0.00 0.00 99 993.5
20260830074844 66 62 0.0 0.0 0.00 0.00 0.00 99 993.5
20260830073607 67 62 0.0 0.0 0.00 0.00 0.00 99 993.5
20260830072423 67 62 0.0 2.0 0.00 0.00 0.00 99 993.5
20260830071823 67 63 0.0 0.0 0.00 0.00 0.00 99 993.2
20260830071225 67 63 0.0 1.0 0.00 0.00 0.00 99 993.2
20260830070641 67 63 0.0 0.0 0.00 0.00 0.00 99 993.2
20260830065441 67 64 0.0 0.0 0.00 0.00 0.00 99 993.2
20260830064823 67 64 0.0 0.0 0.00 0.00 0.00 99 993.5
20260830064225 67 65 0.0 1.0 0.00 0.00 0.00 99 993.2
20260830063616 67 70 0.0 1.0 0.00 0.00 0.00 99 993.2
20260830063044 67 71 0.0 1.0 0.00 0.00 0.00 99 993.5
20260830062425 68 71 0.0 0.0 0.00 0.00 0.00 99 993.5
20260830061818 68 71 0.0 1.0 0.00 0.00 0.00 99 993.5
20260830061239 68 71 0.0 0.0 0.00 0.00 0.00 99 993.9
20260830060615 68 71 0.0 0.0 0.00 0.00 0.00 99 993.9
20260830060010 68 71 0.0 1.0 0.00 0.00 0.00 99 993.9
20260830055414 68 71 0.0 1.0 0.00 0.00 0.00 99 993.5
20260830054818 68 73 1.0 2.0 0.00 0.00 0.00 99 993.9
20260830054212 68 73 0.0 0.0 0.00 0.00 0.00 99 993.5
20260830053622 68 73 0.0 1.0 0.00 0.00 0.00 99 993.9
20260830053017 68 73 0.0 0.0 0.00 0.00 0.00 99 993.9
20260830052449 68 73 0.0 1.0 0.00 0.00 0.00 99 993.9
20260830051836 68 73 0.0 0.0 0.00 0.00 0.00 99 993.9
20260830051241 68 73 0.0 0.0 0.00 0.00 0.00 99 993.9
20260830050643 68 73 0.0 0.0 0.00 0.00 0.00 99 993.5
20260830050012 68 73 0.0 1.0 0.00 0.00 0.00 99 993.5
20260830045434 68 73 0.0 0.0 0.00 0.00 0.00 99 993.9
20260830044842 68 73 1.0 1.0 0.00 0.00 0.00 99 993.5
20260830044214 68 72 0.0 0.0 0.00 0.00 0.00 99 993.5
20260830043616 68 73 0.0 1.0 0.00 0.00 0.00 99 993.5
20260830043028 68 73 0.0 0.0 0.00 0.00 0.00 99 993.5
20260830042430 68 73 1.0 1.0 0.00 0.00 0.00 99 993.2
20260830040651 69 71 0.0 0.0 0.00 0.00 0.00 99 993.2
20260830040045 69 74 1.0 1.0 0.00 0.00 0.00 99 993.2
20260830035415 69 71 0.0 0.0 0.00 0.00 0.00 99 993.5
20260830034850 69 71 0.0 0.0 0.00 0.00 0.00 99 993.5
20260830034241 69 76 0.0 0.0 0.00 0.00 0.00 99 993.2
20260830033633 69 77 0.0 2.0 0.00 0.00 0.00 99 993.2
20260830033033 69 78 0.0 0.0 0.00 0.00 0.00 99 993.2
20260830032437 69 79 0.0 0.0 0.00 0.00 0.00 99 993.5
20260830031222 70 79 0.0 0.0 0.00 0.00 0.00 99 993.2
20260830030013 70 80 0.0 1.0 0.00 0.00 0.00 99 993.2
20260830025415 70 80 0.0 0.0 0.00 0.00 0.00 99 992.8
20260830024850 70 80 1.0 1.0 0.00 0.00 0.00 99 993.2
20260830024243 70 81 0.0 1.0 0.00 0.00 0.00 99 992.8
20260830023650 70 80 0.0 0.0 0.00 0.00 0.00 99 992.8
20260830023024 70 80 0.0 0.0 0.00 0.00 0.00 99 992.8
20260830022415 70 80 0.0 0.0 0.00 0.00 0.00 99 992.8
20260830021812 70 80 0.0 0.0 0.00 0.00 0.00 99 992.8
20260830021245 70 80 0.0 1.0 0.00 0.00 0.00 99 993.2
20260830020637 70 80 0.0 0.0 0.00 0.00 0.00 99 992.8
20260830020043 70 80 0.0 0.0 0.00 0.00 0.00 99 993.2
20260830015420 70 81 0.0 0.0 0.00 0.00 0.00 99 992.8
20260830014840 70 80 0.0 0.0 0.00 0.00 0.00 99 992.8
20260830014223 71 81 0.0 0.0 0.00 0.00 0.00 99 992.8
20260830013020 71 80 0.0 1.0 0.00 0.00 0.00 99 992.8
20260830012443 71 79 0.0 0.0 0.00 0.00 0.00 99 992.8
20260830011807 71 79 0.0 1.0 0.00 0.00 0.00 99 992.5
20260830011224 71 80 0.0 0.0 0.00 0.00 0.00 99 992.5
20260830010647 71 80 0.0 0.0 0.00 0.00 0.00 99 992.8
20260830005446 72 79 0.0 0.0 0.00 0.00 0.00 99 992.5
20260830004816 72 78 0.0 0.0 0.00 0.00 0.00 99 992.5
20260830004224 72 81 1.0 1.0 0.00 0.00 0.00 99 992.2
20260830003629 72 78 0.0 0.0 0.00 0.00 0.00 99 992.2
20260830003043 72 79 0.0 0.0 0.00 0.00 0.00 99 992.2
20260830002447 72 122 0.0 1.0 0.00 0.00 0.00 98 992.2
20260830001831 73 129 0.0 1.0 0.00 0.00 0.00 98 992.2
20260830001232 73 138 1.0 1.0 0.00 0.00 0.00 98 991.8